| time (UTC) | temp F | wind direction | speed knots | gust knots | rain 1hr in | rain 24hr in | rain mn in | humidity % | barometer mb |
| 20260507141554 | 51 | 169 | 0.0 | 1.7 | 0.00 | 0.00 | 0.00 | 68 | 1020.0 |
| 20260507140037 | 51 | 169 | 0.0 | 0.9 | 0.00 | 0.00 | 0.00 | 69 | 1020.0 |
| 20260507134539 | 51 | 169 | 0.0 | 0.9 | 0.00 | 0.00 | 0.00 | 69 | 1020.0 |
| 20260507133040 | 51 | 138 | 0.0 | 0.9 | 0.00 | 0.00 | 0.00 | 69 | 1019.8 |
| 20260507131541 | 50 | 138 | 0.0 | 0.0 | 0.00 | 0.00 | 0.00 | 68 | 1019.8 |
| 20260507130040 | 50 | 138 | 0.0 | 0.9 | 0.00 | 0.00 | 0.00 | 69 | 1019.9 |
| 20260507124536 | 50 | 78 | 0.0 | 1.7 | 0.00 | 0.00 | 0.00 | 69 | 1019.9 |
| 20260507123034 | 50 | 114 | 0.0 | 0.9 | 0.00 | 0.00 | 0.00 | 68 | 1019.9 |
| 20260507121532 | 50 | 109 | 0.0 | 0.9 | 0.00 | 0.00 | 0.00 | 68 | 1020.1 |
| 20260507120032 | 51 | 105 | 0.0 | 1.7 | 0.00 | 0.00 | 0.00 | 68 | 1020.0 |
| 20260507114531 | 51 | 144 | 0.0 | 2.6 | 0.00 | 0.00 | 0.00 | 69 | 1020.1 |
| 20260507113030 | 51 | 134 | 0.0 | 0.9 | 0.00 | 0.00 | 0.00 | 69 | 1020.3 |
| 20260507111529 | 51 | 130 | 0.0 | 0.9 | 0.00 | 0.00 | 0.00 | 68 | 1020.3 |
| 20260507110028 | 51 | 130 | 0.0 | 1.7 | 0.00 | 0.00 | 0.00 | 68 | 1020.3 |
| 20260507104527 | 51 | 131 | 0.0 | 2.6 | 0.00 | 0.00 | 0.00 | 68 | 1020.3 |
| 20260507103027 | 51 | 132 | 0.0 | 1.7 | 0.00 | 0.00 | 0.00 | 68 | 1020.3 |
| 20260507101525 | 51 | 122 | 0.0 | 0.0 | 0.00 | 0.00 | 0.00 | 69 | 1020.4 |
| 20260507100032 | 52 | 121 | 0.0 | 0.0 | 0.00 | 0.00 | 0.00 | 69 | 1020.3 |
| 20260507094523 | 52 | 123 | 0.0 | 0.9 | 0.00 | 0.00 | 0.00 | 68 | 1020.3 |
| 20260507093023 | 52 | 122 | 0.0 | 0.9 | 0.00 | 0.00 | 0.00 | 68 | 1020.3 |
| 20260507091523 | 52 | 120 | 0.0 | 0.9 | 0.00 | 0.00 | 0.00 | 68 | 1020.3 |
| 20260507090020 | 52 | 120 | 0.0 | 0.9 | 0.00 | 0.00 | 0.00 | 68 | 1020.4 |
| 20260507084519 | 52 | 136 | 0.9 | 3.5 | 0.00 | 0.00 | 0.00 | 68 | 1020.3 |
| 20260507083018 | 52 | 136 | 0.0 | 1.7 | 0.00 | 0.00 | 0.00 | 68 | 1020.3 |
| 20260507081517 | 52 | 137 | 0.0 | 1.7 | 0.00 | 0.00 | 0.00 | 68 | 1020.3 |
| 20260507080016 | 52 | 159 | 0.0 | 2.6 | 0.00 | 0.00 | 0.00 | 69 | 1020.1 |
| 20260507074515 | 52 | 121 | 0.0 | 1.7 | 0.00 | 0.00 | 0.00 | 69 | 1019.9 |
| 20260507073013 | 52 | 163 | 0.0 | 1.7 | 0.00 | 0.00 | 0.00 | 69 | 1019.8 |
| 20260507071523 | 52 | 169 | 0.0 | 0.9 | 0.00 | 0.00 | 0.00 | 69 | 1019.8 |
| 20260507070012 | 52 | 169 | 0.0 | 0.9 | 0.00 | 0.00 | 0.00 | 69 | 1019.7 |
| 20260507064509 | 53 | 169 | 0.0 | 1.7 | 0.00 | 0.00 | 0.00 | 68 | 1019.7 |
| 20260507063009 | 53 | 174 | 0.0 | 2.6 | 0.00 | 0.00 | 0.00 | 68 | 1019.8 |
| 20260507061508 | 53 | 82 | 0.0 | 2.6 | 0.00 | 0.00 | 0.00 | 68 | 1019.7 |
| 20260507060008 | 54 | 161 | 0.0 | 2.6 | 0.00 | 0.00 | 0.00 | 67 | 1019.7 |
| 20260507054509 | 54 | 163 | 0.0 | 2.6 | 0.00 | 0.00 | 0.00 | 68 | 1019.8 |
| 20260507053008 | 54 | 142 | 0.0 | 0.9 | 0.00 | 0.00 | 0.00 | 68 | 1019.7 |
| 20260507051506 | 54 | 142 | 0.0 | 0.9 | 0.00 | 0.00 | 0.00 | 68 | 1019.8 |
| 20260507050013 | 54 | 134 | 0.0 | 2.6 | 0.00 | 0.00 | 0.00 | 67 | 1019.8 |
| 20260507044505 | 54 | 126 | 0.9 | 1.7 | 0.00 | 0.00 | 0.00 | 68 | 1019.9 |
| 20260507043004 | 54 | 62 | 0.0 | 0.9 | 0.00 | 0.00 | 0.00 | 68 | 1019.9 |
| 20260507041510 | 54 | 62 | 0.0 | 0.9 | 0.00 | 0.00 | 0.00 | 68 | 1019.8 |
| 20260507040002 | 54 | 56 | 0.0 | 0.0 | 0.00 | 0.00 | 0.00 | 68 | 1019.7 |
| 20260507034501 | 54 | 55 | 0.0 | 0.9 | 0.00 | 0.00 | 0.00 | 68 | 1019.6 |
| 20260507033002 | 55 | 54 | 0.0 | 1.7 | 0.00 | 0.00 | 0.00 | 68 | 1019.5 |
| 20260507031600 | 55 | 54 | 0.0 | 2.6 | 0.00 | 0.00 | 0.00 | 68 | 1019.5 |
| 20260507030100 | 55 | 64 | 0.0 | 3.5 | 0.00 | 0.00 | 0.00 | 67 | 1019.4 |
| 20260507024559 | 55 | 69 | 0.0 | 2.6 | 0.00 | 0.00 | 0.00 | 67 | 1019.3 |
| 20260507023059 | 56 | 73 | 0.0 | 1.7 | 0.00 | 0.00 | 0.00 | 66 | 1019.2 |
| 20260507021557 | 56 | 74 | 0.0 | 2.6 | 0.00 | 0.00 | 0.00 | 66 | 1019.2 |
| 20260507020118 | 56 | 73 | 0.0 | 1.7 | 0.00 | 0.00 | 0.00 | 66 | 1019.2 |
| 20260507014600 | 56 | 92 | 0.0 | 3.5 | 0.00 | 0.00 | 0.00 | 65 | 1019.4 |
| 20260507013057 | 57 | 59 | 0.0 | 2.6 | 0.00 | 0.00 | 0.00 | 65 | 1019.2 |
| 20260507011557 | 57 | 111 | 0.0 | 0.9 | 0.00 | 0.00 | 0.00 | 63 | 1019.5 |
| 20260507010109 | 57 | 38 | 0.0 | 2.6 | 0.00 | 0.00 | 0.00 | 63 | 1019.2 |
| 20260507004554 | 57 | 138 | 0.0 | 0.9 | 0.00 | 0.00 | 0.00 | 64 | 1019.3 |
| 20260507003053 | 57 | 138 | 0.0 | 1.7 | 0.00 | 0.00 | 0.00 | 64 | 1019.2 |
| 20260507001557 | 57 | 138 | 0.0 | 2.6 | 0.00 | 0.00 | 0.00 | 63 | 1019.2 |
| 20260507000053 | 57 | 152 | 0.0 | 4.3 | 0.00 | 0.00 | 0.00 | 63 | 1019.1 |
| 20260506234558 | 57 | 186 | 0.0 | 1.7 | 0.00 | 0.00 | 0.00 | 63 | 1019.1 |
| 20260506233053 | 56 | 194 | 0.0 | 2.6 | 0.00 | 0.00 | 0.00 | 64 | 1019.3 |
| 20260506231607 | 56 | 171 | 0.0 | 5.2 | 0.00 | 0.00 | 0.00 | 64 | 1019.3 |
| 20260506230106 | 56 | 144 | 2.6 | 7.0 | 0.00 | 0.00 | 0.00 | 63 | 1019.3 |
| 20260506224551 | 57 | 205 | 0.9 | 3.5 | 0.00 | 0.00 | 0.00 | 62 | 1019.4 |
| 20260506223050 | 57 | 208 | 0.0 | 3.5 | 0.00 | 0.00 | 0.00 | 63 | 1019.4 |
| 20260506221608 | 57 | 128 | 1.7 | 4.3 | 0.00 | 0.00 | 0.00 | 61 | 1019.3 |
| 20260506220104 | 57 | 135 | 1.7 | 4.3 | 0.00 | 0.00 | 0.00 | 61 | 1019.5 |
| 20260506214549 | 57 | 125 | 0.9 | 4.3 | 0.00 | 0.00 | 0.00 | 61 | 1019.5 |
| 20260506213102 | 57 | 236 | 0.0 | 6.1 | 0.00 | 0.00 | 0.00 | 62 | 1019.5 |
| 20260506211542 | 56 | 183 | 1.7 | 3.5 | 0.00 | 0.00 | 0.00 | 61 | 1019.6 |
| 20260506210053 | 56 | 198 | 1.7 | 3.5 | 0.00 | 0.00 | 0.00 | 61 | 1019.8 |
| 20260506204542 | 56 | 189 | 1.7 | 4.3 | 0.00 | 0.00 | 0.00 | 61 | 1019.6 |
| 20260506203039 | 56 | 57 | 0.9 | 4.3 | 0.00 | 0.00 | 0.00 | 62 | 1019.7 |
| 20260506201544 | 56 | 165 | 0.9 | 3.5 | 0.00 | 0.00 | 0.00 | 62 | 1019.7 |
| 20260506200037 | 55 | 193 | 0.0 | 6.1 | 0.00 | 0.00 | 0.00 | 63 | 1019.7 |
| 20260506194533 | 55 | 240 | 1.7 | 5.2 | 0.00 | 0.00 | 0.00 | 63 | 1019.6 |
| 20260506193031 | 55 | 208 | 0.9 | 6.1 | 0.00 | 0.00 | 0.00 | 63 | 1019.5 |
| 20260506191530 | 54 | 187 | 0.9 | 7.8 | 0.00 | 0.00 | 0.00 | 63 | 1019.5 |
| 20260506190030 | 54 | 232 | 0.0 | 6.1 | 0.00 | 0.00 | 0.00 | 64 | 1019.5 |
| 20260506184527 | 54 | 251 | 0.9 | 7.0 | 0.00 | 0.00 | 0.00 | 64 | 1019.4 |
| 20260506183026 | 54 | 178 | 1.7 | 5.2 | 0.00 | 0.00 | 0.00 | 64 | 1019.4 |
| 20260506181524 | 53 | 161 | 0.9 | 7.8 | 0.00 | 0.00 | 0.00 | 65 | 1019.4 |
| 20260506180030 | 54 | 228 | 0.9 | 6.1 | 0.00 | 0.00 | 0.00 | 65 | 1019.4 |
| 20260506174525 | 54 | 257 | 0.9 | 7.0 | 0.00 | 0.00 | 0.00 | 64 | 1019.1 |
| 20260506173021 | 53 | 196 | 0.9 | 4.3 | 0.00 | 0.00 | 0.00 | 66 | 1018.8 |
| 20260506171530 | 54 | 140 | 1.7 | 6.1 | 0.00 | 0.00 | 0.00 | 66 | 1019.0 |
| 20260506170015 | 54 | 182 | 2.6 | 7.0 | 0.00 | 0.00 | 0.00 | 65 | 1019.2 |
| 20260506164513 | 54 | 80 | 0.0 | 7.0 | 0.00 | 0.00 | 0.00 | 66 | 1019.0 |
| 20260506163012 | 53 | 165 | 2.6 | 7.8 | 0.00 | 0.00 | 0.00 | 66 | 1019.1 |
| 20260506161508 | 53 | 257 | 1.7 | 8.7 | 0.00 | 0.00 | 0.00 | 66 | 1019.0 |
| 20260506160005 | 53 | 141 | 0.0 | 6.1 | 0.00 | 0.00 | 0.00 | 69 | 1018.7 |
| 20260506154600 | 53 | 222 | 0.9 | 6.1 | 0.00 | 0.00 | 0.00 | 69 | 1018.4 |
| 20260506153058 | 52 | 174 | 1.7 | 6.1 | 0.00 | 0.00 | 0.00 | 69 | 1018.3 |
| 20260506151559 | 52 | 220 | 0.9 | 6.1 | 0.00 | 0.00 | 0.00 | 69 | 1018.5 |
| 20260506150057 | 52 | 165 | 0.0 | 2.6 | 0.00 | 0.00 | 0.00 | 70 | 1018.6 |
| 20260506144603 | 52 | 124 | 0.0 | 7.0 | 0.00 | 0.00 | 0.00 | 70 | 1018.6 |
| 20260506143055 | 52 | 134 | 1.7 | 3.5 | 0.00 | 0.00 | 0.00 | 70 | 1018.2 |